Погода в Называевске

Погода в Называевске : погода сейчас, прогноз погоды и архив. Всё, что Вы хотите узнать о погоде в Называевске!

Хотите узнать прогноз погоды в Называевске? Тогда Вам сюда: Погода в Называевске

Поиск расширенной информации на нашем сайте:

Другие новости

Новости СМИ2

Главная страница сайта

Новости сайта

02.10.2013

Напоминаем, что на нашем новом сайте вы можете получить высокодетализированные прогнозы погоды по пунктам России, СНГ и мира (включающие важные для авиации метеовеличины, такие как направление и скорость ветра, видимость, явления погоды, количество и форма облачности, нижняя и верхняя граница облачности), а также ознакомиться с разнообразными материалами по авиационной метеорологии и подборкой полезных ссылок на эту тему.

Сайт Метеоцентр.Азия посвящён разработке технологий оптимизации авиаметеорологического обслуживания, включая проектирование и перспективное создание нескольких автоматизированных авиаметеорологических систем:
- система выпуска высокодетальных прогностических карт явлений погоды для нижнего воздушного пространства по России и ближнему зарубежью;
- система верификации прогнозов TAF (выпускаемых синоптиками официальных АМСГ РФ и ближнего зарубежья) и AUTOTAF (выпускаемых сайтом Метеоцентр.Азия) - выявление ошибок, онлайн-сопоставление с фактической погодой METAR, автоматическое внесение коррективов в прогнозы при резком отклонении фактической погоды от прогноза, подсчёт оправдываемости прогнозов по элементам и в целом;
- система обработки, анализа и отображения авиаметеорологической информации для применения провайдерами метеорологической информации.


Погода в Называевске - сегодня

Время (UTC), дата Ветер
(°,м/с) 
Видим.   Явления Облачность Т
(°С)
Тd
(°С)
f(%) Тe
(°С)
Pmin
(гПа)
dP
(гПа)
Po
(мм)
O2
(г/м3)
Тmin Tmax R s Состояние
почвы
09 24.03.17 130 (ЮВ) 40000 м    3/0 верхняя 
[Ci sp]
+0.7 -7.8 53 -2  1016.6  -3.8  751  302           
12 24.03.17 150 (ЮВ) 40000 м    3/0 средняя, верхняя 
[Ac trans|Ci sp]
-0.3 -7.9 56 -3  1014.4  -2.1  749  303           
15 24.03.17 150 (ЮВ) 20000 м    9/0 средняя 
[Ac und]
-2.7 -7.5 69 -5  1013.1  -1.4  748  305    +0.7       
18 24.03.17 250 (З) 20000 м    6/0 верхняя 
[Ci sp]
-4.6 -8 77 -6  1012.1  -1.1  747  307           
21 24.03.17 260 (З) 20000 м    ясно 
-6 -8.3 84 -9  1011.5  -0.7  747  308           
00 25.03.17 260 (З) 20000 м    9/0 средняя 
[Ac As]
-5.9 -8.5 82 -8  1011.9  0.4  747  308           
03 25.03.17 270 (З) 30000 м    9/0 средняя 
[Ac As]
-4.1 -7.6 77 -6  1013.1  1.3  748  307  -7.3      44  равномерный
мокрый или
старый снег
100% 
06 25.03.17 290 (З) 35000 м    9/0 средняя 
[Ac As]
+0.4 -3.9 73 -2  1015  2.1  749  302           
09 25.03.17 280 (З) 4{10}  40000 м    1/1 600 м верхняя 
[Cu hum|Ci fib]
+3.2 -3.7 61 +1  1016.7  1.8  751  299           
12 25.03.17 270 (З) 40000 м    3/1 600 м верхняя 
[Cu hum|Ci fib]
+3.3 -3.4 61 +1  1018.2  1.5  752  300           
15 25.03.17 240 (ЮЗ) 20000 м    1/0 верхняя 
[Ci fib]
-0.1 -5.2 68 -1  1020.1  1.7  753  304    +4.1       
18 25.03.17 230 (ЮЗ) 20000 м    ясно 
-2.2 -6.1 75 -3  1021.1  0.9  754  307           
21 25.03.17 210 (ЮЗ) 20000 м    ясно 
-3.9 -6.2 84 -5  1021.9  0.7  754  309           
00 26.03.17 190 (Ю) 20000 м    1/0 средняя 
[Ac lent]
-5.7 -7.9 84 -8  1021.9  -0.4  754  311           
03 26.03.17 200 (Ю) 40000 м    1/0 средняя 
[Ac lent]
-4.2 -7.4 78 -6  1021.7  0.1  754  309  -5.9      42  равномерный
мокрый или
старый снег
100% 
06 26.03.17 190 (Ю) 40000 м    3/0 средняя 
[Ac lent]
+0.7 -5.7 62 -2  1020.1  -1.3  753  303           
09 26.03.17 190 (Ю) 40000 м    10/0 верхняя 
[Cs]
+2 -4.4 63 -1  1017.8  -2.1  752  301           
12 26.03.17 160 (Ю) 40000 м    9/0 средняя 
[Ac As]
-0 -4.5 72 -3  1015.4  -2.5  750  303           
15 26.03.17 190 (Ю) 20000 м    10/10 360 м 
[Ns]
-3.3 -5 88 -5  1014.6  -1  749  306    +2.1       
18 26.03.17 200 (Ю) 4000 м    10/10 270 м 
[Ns]
-3.4 -4.6 91 -6  1013.1  -1.5  748  306           
21 26.03.17 190 (Ю) 4000 м  дымка  10/10 210 м 
[St]
-3.2 -4 94 -6  1011.9  -1.2  747  305           
00 27.03.17 190 (Ю) 4000 м  дымка  10/10 570 м 
[Ns]
-2.8 -4.2 90 -6  1010.9  -1  746  304           
03 27.03.17 210 (ЮЗ) 5000 м  слаб. снег  10/10 420 м 
[Ns]
-1.6 -3.2 89 -4  1010.8  746  303  -3.5    0.0  40  равномерный
сухой снег
100% 
06 27.03.17 230 (ЮЗ) 40000 м  {снег}  10/9 570 м средняя 
[Frnb|As op]
+1.2 -1.6 82 -1  1010.9  0.2  746  300           
09 27.03.17 220 (ЮЗ) 5{10}  40000 м    8/0 верхняя 
[Ci fib]
+3.4 -3.1 62 +1  1011.2  0.4  747  298           
Время (UTC), дата Ветер
(°,м/с) 
Видим.   Явления Облачность Т
(°С)
Тd
(°С)
f(%) Тe
(°С)
Pmin
(гПа)
dP
(гПа)
Po
(мм)
O2
(г/м3)
Тmin Tmax R s Состояние
почвы

Для получения пояснительной информации подведите курсор к названию столбца.

ПОГОДА в Называевске - архив

Всё, что Вы хотите узнать о погоде в Называевске - удобно и подробно!

Выберите нужную дату (начиная с 1 января 2015* года) и нажмите кнопку "Найти".
Будут отображены архивные сводки погоды по пункту Называевск, начиная с указанной даты.


Отображать данные в формате CSV (для использования в таблицах Excel)


Внимание! Наш архив погоды предназначен исключительно для личного некоммерческого использования в познавательных целях. Если Вам необходимы официальные справки о состоянии погоды (для производственных, юридических, коммерческих и т.п. целей), обращайтесь в органы Росгидромета.

*Примечание: данная дата относится к архиву по метеостанциям СССР (Россия, СНГ, Балтия).
Архив по метеостанциям Зарубежной Европы и Азии (кроме Китая) хранится 10 дней, по другим регионам земного шара (Китай, Африка, Америка, Австралия, Океания) - 1 день.

Называевск - район местоположения метеостанции


Название, широта, долгота, высота метеостанции:
Называевск 55.6°ш. 71.4°д. 126 м над ур. моря [Российская Федерация]

Дополнительная информация

В oтличие oт бoльшинства пoгoдных сайтoв мы публикуем пoдрoбную метеoинфoрмацию в детальнoм прoфессиoнальнoм фoрмате.

Характеристики температуры и влажнoсти вoздуха измеряются на высoте 2 м в тени вдали oт зданий и деревьев.
Скoрoсть ветра измеряется на высoте 10 м (на урoвне рoста челoвека скoрoсть ветра ниже в 1.5-2 раза). Если метеoстанция нахoдится в гoрoде или в лесу, тo скoрoсть ветра занижена на 2-4 м/с пo сравнению с oткрытым местoм. Скoрoсть ветра над акватoриями крупных рек и oзёр, а также на вершинах хoлмoв на 2-5 м/с выше, чем в oбычных услoвиях.
Атмoсфернoе давление в разных тoчках местнoсти мoжет значительнo oтличаться oт давления на метеoстанции, в зависимoсти oт услoвий рельефа (при пoдъёме на 10 м давление пoнижается примернo на 1 мм рт.ст.).